Tracking 22438 objects as of 24-Feb-2021
HD Live streaming from Space Station
objects crossing your sky now

CZ-4 DEB

Track CZ-4 DEB now!
10-day predictions


NORAD ID: 37613
Int'l Code: 1990-081CZ
Perigee: 795.1 km
Apogee: 1,058.3 km
Inclination: 98.9 °
Period: 103.4 minutes
Semi major axis: 7297 km
RCS: 0.0075 m2 (small)
Launch date: September 3, 1990
Source: People's Republic of China (PRC)
Launch site: Taiyaun Space Center, China (TSC)

Note: This is SATELLITE DEBRIS
aabbcc
Your satellite tracking list
Your tracking list is empty




NASA's NSSDC Master Catalog

Two Line Element Set (TLE):
1 37613U 90081CZ  21055.07205412  .00001597  00000-0  11118-2 0  9998
2 37613  98.9027 275.7191 0180369  27.5961 333.4635 13.92597215862328
Source of the keplerian elements: AFSPC